| time (UTC) | temp F | wind direction | speed MPH | gust MPH | rain 1hr in | rain 24hr in | rain mn in | humidity % | barometer mb |
| 20260903190804 | 83 | 323 | 0.0 | 0.0 | 0.00 | 0.00 | 0.00 | 38 | 1013.9 |
| 20260903190304 | 83 | 323 | 0.0 | 0.0 | 0.00 | 0.00 | 0.00 | 39 | 1014.0 |
| 20260903190052 | 82 | 323 | 0.0 | 0.0 | 0.00 | 0.00 | 0.00 | 39 | 1014.1 |
| 20260903185306 | 82 | 323 | 0.0 | 0.0 | 0.00 | 0.00 | 0.00 | 40 | 1014.2 |
| 20260903184805 | 81 | 323 | 0.0 | 0.0 | 0.00 | 0.00 | 0.00 | 41 | 1014.4 |
| 20260903184304 | 81 | 323 | 0.0 | 0.0 | 0.00 | 0.00 | 0.00 | 41 | 1014.4 |
| 20260903184051 | 81 | 323 | 0.0 | 0.0 | 0.00 | 0.00 | 0.00 | 41 | 1014.6 |
| 20260903183302 | 81 | 323 | 0.0 | 0.0 | 0.00 | 0.00 | 0.00 | 40 | 1014.6 |
| 20260903182802 | 81 | 323 | 0.0 | 0.0 | 0.00 | 0.00 | 0.00 | 40 | 1014.6 |
| 20260903182302 | 80 | 323 | 0.0 | 0.0 | 0.00 | 0.00 | 0.00 | 43 | 1014.7 |
| 20260903181803 | 80 | 323 | 0.0 | 0.0 | 0.00 | 0.00 | 0.00 | 41 | 1014.7 |
| 20260903181549 | 80 | 323 | 0.0 | 0.0 | 0.00 | 0.00 | 0.00 | 43 | 1014.7 |
| 20260903180802 | 80 | 323 | 0.0 | 0.0 | 0.00 | 0.00 | 0.00 | 44 | 1014.7 |
| 20260903180304 | 80 | 323 | 0.0 | 0.0 | 0.00 | 0.00 | 0.00 | 42 | 1014.7 |
| 20260903175804 | 79 | 323 | 0.0 | 0.0 | 0.00 | 0.00 | 0.00 | 44 | 1014.6 |
| 20260903175305 | 79 | 323 | 0.0 | 0.0 | 0.00 | 0.00 | 0.00 | 45 | 1014.8 |
| 20260903174755 | 78 | 323 | 0.0 | 0.0 | 0.00 | 0.00 | 0.00 | 47 | 1014.7 |
| 20260903174547 | 78 | 323 | 0.0 | 0.0 | 0.00 | 0.00 | 0.00 | 46 | 1014.8 |
| 20260903173755 | 77 | 323 | 0.0 | 0.0 | 0.00 | 0.00 | 0.00 | 47 | 1014.7 |
| 20260903173253 | 77 | 323 | 0.0 | 0.0 | 0.00 | 0.00 | 0.00 | 47 | 1014.7 |
| 20260903172750 | 77 | 323 | 0.0 | 0.0 | 0.00 | 0.00 | 0.00 | 48 | 1014.9 |
| 20260903172539 | 76 | 323 | 0.0 | 0.0 | 0.00 | 0.00 | 0.00 | 49 | 1015.0 |
| 20260903171749 | 76 | 323 | 0.0 | 0.0 | 0.00 | 0.00 | 0.00 | 49 | 1015.0 |
| 20260903171525 | 75 | 323 | 0.0 | 0.0 | 0.00 | 0.00 | 0.00 | 52 | 1015.1 |
| 20260903170732 | 75 | 323 | 0.0 | 0.0 | 0.00 | 0.00 | 0.00 | 49 | 1015.0 |
| 20260903170232 | 75 | 323 | 0.0 | 0.0 | 0.00 | 0.00 | 0.00 | 51 | 1014.9 |
| 20260903165731 | 74 | 323 | 0.0 | 0.0 | 0.00 | 0.00 | 0.00 | 51 | 1015.1 |
| 20260903165228 | 74 | 323 | 0.0 | 0.0 | 0.00 | 0.00 | 0.00 | 51 | 1015.1 |
| 20260903164727 | 73 | 323 | 0.0 | 0.0 | 0.00 | 0.00 | 0.00 | 53 | 1015.2 |
| 20260903164225 | 73 | 323 | 0.0 | 0.0 | 0.00 | 0.00 | 0.00 | 53 | 1015.1 |
| 20260903163725 | 73 | 323 | 0.0 | 0.0 | 0.00 | 0.00 | 0.00 | 53 | 1015.2 |
| 20260903163218 | 72 | 323 | 0.0 | 0.0 | 0.00 | 0.00 | 0.00 | 55 | 1015.2 |
| 20260903163011 | 72 | 323 | 0.0 | 0.0 | 0.00 | 0.00 | 0.00 | 56 | 1015.3 |
| 20260903162217 | 71 | 323 | 0.0 | 0.0 | 0.00 | 0.00 | 0.00 | 58 | 1015.2 |
| 20260903161719 | 71 | 323 | 0.0 | 0.0 | 0.00 | 0.00 | 0.00 | 58 | 1015.2 |
| 20260903161218 | 71 | 323 | 0.0 | 0.0 | 0.00 | 0.00 | 0.00 | 58 | 1015.1 |
| 20260903160714 | 70 | 323 | 0.0 | 0.0 | 0.00 | 0.00 | 0.00 | 58 | 1015.1 |
| 20260903160216 | 69 | 323 | 0.0 | 0.0 | 0.00 | 0.00 | 0.00 | 59 | 1015.1 |
| 20260903155714 | 69 | 323 | 0.0 | 0.0 | 0.00 | 0.00 | 0.00 | 60 | 1015.1 |
| 20260903155212 | 68 | 323 | 0.0 | 0.0 | 0.00 | 0.00 | 0.00 | 62 | 1015.1 |
| 20260903154710 | 67 | 323 | 0.0 | 0.0 | 0.00 | 0.00 | 0.00 | 63 | 1015.1 |
| 20260903154209 | 67 | 323 | 0.0 | 0.0 | 0.00 | 0.00 | 0.00 | 63 | 1015.1 |
| 20260903153708 | 66 | 323 | 0.0 | 0.0 | 0.00 | 0.00 | 0.00 | 64 | 1015.2 |
| 20260903153205 | 66 | 323 | 0.0 | 0.0 | 0.00 | 0.00 | 0.00 | 66 | 1015.1 |
| 20260903152702 | 65 | 323 | 0.0 | 0.0 | 0.00 | 0.00 | 0.00 | 67 | 1015.2 |
| 20260903152204 | 64 | 323 | 0.0 | 0.0 | 0.00 | 0.00 | 0.00 | 68 | 1015.3 |
| 20260903151702 | 63 | 323 | 0.0 | 1.0 | 0.00 | 0.00 | 0.00 | 69 | 1015.3 |
| 20260903151204 | 63 | 323 | 0.0 | 1.0 | 0.00 | 0.00 | 0.00 | 70 | 1015.2 |
| 20260903150740 | 62 | 311 | 0.0 | 2.0 | 0.00 | 0.00 | 0.00 | 72 | 1015.2 |
| 20260903150724 | 62 | 311 | 0.0 | 2.0 | 0.00 | 0.00 | 0.00 | 72 | 1015.2 |
| 20260903145653 | 61 | 307 | 0.0 | 1.0 | 0.00 | 0.00 | 0.00 | 72 | 1015.2 |
| 20260903145227 | 61 | 282 | 0.0 | 1.0 | 0.00 | 0.00 | 0.00 | 73 | 1015.2 |
| 20260903145209 | 61 | 307 | 0.0 | 1.0 | 0.00 | 0.00 | 0.00 | 72 | 1015.3 |
| 20260903144147 | 61 | 282 | 0.0 | 1.0 | 0.00 | 0.00 | 0.00 | 73 | 1015.1 |
| 20260903143646 | 61 | 310 | 0.0 | 4.0 | 0.00 | 0.00 | 0.00 | 73 | 1015.1 |
| 20260903143142 | 60 | 310 | 0.0 | 4.0 | 0.00 | 0.00 | 0.00 | 73 | 1015.0 |
| 20260903142640 | 60 | 313 | 0.0 | 1.0 | 0.00 | 0.00 | 0.00 | 73 | 1015.0 |
| 20260903142133 | 60 | 304 | 0.0 | 1.0 | 0.00 | 0.00 | 0.00 | 73 | 1015.0 |
| 20260903141632 | 60 | 302 | 0.0 | 1.0 | 0.00 | 0.00 | 0.00 | 74 | 1014.8 |
| 20260903141213 | 60 | 298 | 0.0 | 0.0 | 0.00 | 0.00 | 0.00 | 74 | 1014.9 |
| 20260903141152 | 60 | 298 | 0.0 | 0.0 | 0.00 | 0.00 | 0.00 | 74 | 1014.8 |
| 20260903140422 | 60 | 298 | 0.0 | 0.0 | 0.00 | 0.00 | 0.00 | 74 | 1014.7 |
| 20260903135634 | 60 | 298 | 0.0 | 0.0 | 0.00 | 0.00 | 0.00 | 74 | 1014.6 |
| 20260903135134 | 60 | 298 | 0.0 | 0.0 | 0.00 | 0.00 | 0.00 | 73 | 1014.6 |
| 20260903134634 | 60 | 298 | 0.0 | 0.0 | 0.00 | 0.00 | 0.00 | 73 | 1014.6 |
| 20260903134133 | 60 | 298 | 0.0 | 0.0 | 0.00 | 0.00 | 0.00 | 73 | 1014.5 |
| 20260903133919 | 60 | 298 | 0.0 | 0.0 | 0.00 | 0.00 | 0.00 | 73 | 1014.5 |
| 20260903133134 | 60 | 298 | 0.0 | 0.0 | 0.00 | 0.00 | 0.00 | 72 | 1014.5 |
| 20260903132633 | 60 | 298 | 0.0 | 0.0 | 0.00 | 0.00 | 0.00 | 72 | 1014.5 |
| 20260903132133 | 61 | 298 | 0.0 | 0.0 | 0.00 | 0.00 | 0.00 | 72 | 1014.5 |
| 20260903131632 | 61 | 298 | 0.0 | 0.0 | 0.00 | 0.00 | 0.00 | 71 | 1014.5 |
| 20260903131132 | 61 | 298 | 0.0 | 0.0 | 0.00 | 0.00 | 0.00 | 71 | 1014.5 |
| 20260903130634 | 61 | 298 | 0.0 | 0.0 | 0.00 | 0.00 | 0.00 | 71 | 1014.5 |
| 20260903130132 | 61 | 298 | 0.0 | 0.0 | 0.00 | 0.00 | 0.00 | 71 | 1014.4 |
| 20260903125922 | 61 | 298 | 0.0 | 0.0 | 0.00 | 0.00 | 0.00 | 71 | 1014.4 |
| 20260903125125 | 61 | 298 | 0.0 | 0.0 | 0.00 | 0.00 | 0.00 | 71 | 1014.4 |
| 20260903124620 | 61 | 298 | 0.0 | 0.0 | 0.00 | 0.00 | 0.00 | 71 | 1014.4 |
| 20260903124111 | 61 | 298 | 0.0 | 0.0 | 0.00 | 0.00 | 0.00 | 70 | 1014.4 |
| 20260903123608 | 62 | 298 | 0.0 | 0.0 | 0.00 | 0.00 | 0.00 | 70 | 1014.3 |
| 20260903123104 | 62 | 298 | 0.0 | 0.0 | 0.00 | 0.00 | 0.00 | 70 | 1014.4 |
| 20260903122602 | 62 | 298 | 0.0 | 9.0 | 0.00 | 0.00 | 0.00 | 70 | 1014.3 |
| 20260903122103 | 62 | 298 | 1.0 | 9.0 | 0.00 | 0.00 | 0.00 | 71 | 1014.4 |
| 20260903121606 | 62 | 301 | 0.0 | 0.0 | 0.00 | 0.00 | 0.00 | 71 | 1014.3 |
| 20260903121104 | 62 | 301 | 0.0 | 1.0 | 0.00 | 0.00 | 0.00 | 71 | 1014.3 |
| 20260903120853 | 62 | 301 | 0.0 | 7.0 | 0.00 | 0.00 | 0.00 | 71 | 1014.3 |
| 20260903120104 | 62 | 296 | 1.0 | 7.0 | 0.00 | 0.00 | 0.00 | 71 | 1014.3 |
| 20260903115604 | 62 | 309 | 0.0 | 2.0 | 0.00 | 0.00 | 0.00 | 71 | 1014.3 |
| 20260903115103 | 62 | 304 | 0.0 | 6.0 | 0.00 | 0.00 | 0.00 | 71 | 1014.4 |
| 20260903114602 | 62 | 330 | 1.0 | 6.0 | 0.00 | 0.00 | 0.00 | 72 | 1014.3 |
| 20260903114104 | 62 | 299 | 0.0 | 1.0 | 0.00 | 0.00 | 0.00 | 72 | 1014.4 |
| 20260903113606 | 62 | 299 | 0.0 | 8.0 | 0.00 | 0.00 | 0.00 | 72 | 1014.3 |
| 20260903113138 | 63 | 309 | 0.0 | 0.0 | 0.00 | 0.00 | 0.00 | 72 | 1014.3 |
| 20260903113125 | 62 | 293 | 0.0 | 8.0 | 0.00 | 0.00 | 0.00 | 72 | 1014.3 |
| 20260903112054 | 63 | 309 | 0.0 | 4.0 | 0.00 | 0.00 | 0.00 | 72 | 1014.4 |
| 20260903111551 | 63 | 309 | 0.0 | 4.0 | 0.00 | 0.00 | 0.00 | 72 | 1014.3 |
| 20260903111049 | 63 | 296 | 0.0 | 1.0 | 0.00 | 0.00 | 0.00 | 72 | 1014.4 |
| 20260903110544 | 63 | 296 | 0.0 | 1.0 | 0.00 | 0.00 | 0.00 | 72 | 1014.4 |
| 20260903110331 | 63 | 296 | 0.0 | 0.0 | 0.00 | 0.00 | 0.00 | 71 | 1014.4 |
| 20260903105542 | 63 | 296 | 0.0 | 5.0 | 0.00 | 0.00 | 0.00 | 71 | 1014.5 |
| 20260903105115 | 63 | 294 | 0.0 | 0.0 | 0.00 | 0.00 | 0.00 | 71 | 1014.5 |
| 20260903105058 | 63 | 296 | 0.0 | 5.0 | 0.00 | 0.00 | 0.00 | 71 | 1014.5 |
| 20260903104036 | 64 | 294 | 0.0 | 0.0 | 0.00 | 0.00 | 0.00 | 70 | 1014.5 |
| 20260903103533 | 64 | 294 | 0.0 | 5.0 | 0.00 | 0.00 | 0.00 | 70 | 1014.4 |
| 20260903103314 | 64 | 294 | 0.0 | 5.0 | 0.00 | 0.00 | 0.00 | 70 | 1014.5 |
| 20260903102533 | 64 | 302 | 0.0 | 0.0 | 0.00 | 0.00 | 0.00 | 69 | 1014.5 |
| 20260903102033 | 64 | 302 | 0.0 | 1.0 | 0.00 | 0.00 | 0.00 | 69 | 1014.4 |
| 20260903101533 | 64 | 302 | 0.0 | 1.0 | 0.00 | 0.00 | 0.00 | 69 | 1014.5 |
| 20260903101311 | 64 | 300 | 0.0 | 0.0 | 0.00 | 0.00 | 0.00 | 68 | 1014.5 |
| 20260903100532 | 64 | 300 | 0.0 | 7.0 | 0.00 | 0.00 | 0.00 | 68 | 1014.5 |
| 20260903100035 | 64 | 300 | 0.0 | 7.0 | 0.00 | 0.00 | 0.00 | 68 | 1014.3 |
| 20260903095533 | 64 | 302 | 0.0 | 9.0 | 0.00 | 0.00 | 0.00 | 67 | 1014.5 |
| 20260903095032 | 65 | 302 | 2.0 | 9.0 | 0.00 | 0.00 | 0.00 | 67 | 1014.5 |
| 20260903094812 | 65 | 279 | 0.0 | 1.0 | 0.00 | 0.00 | 0.00 | 67 | 1014.5 |
| 20260903094023 | 65 | 279 | 0.0 | 1.0 | 0.00 | 0.00 | 0.00 | 67 | 1014.4 |
| 20260903093522 | 65 | 296 | 0.0 | 8.0 | 0.00 | 0.00 | 0.00 | 66 | 1014.5 |
| 20260903093014 | 65 | 295 | 1.0 | 8.0 | 0.00 | 0.00 | 0.00 | 66 | 1014.5 |
| 20260903092510 | 65 | 300 | 0.0 | 11.0 | 0.00 | 0.00 | 0.00 | 66 | 1014.4 |
| 20260903092005 | 65 | 272 | 2.0 | 11.0 | 0.00 | 0.00 | 0.00 | 66 | 1014.5 |
| 20260903091503 | 65 | 296 | 0.0 | 1.0 | 0.00 | 0.00 | 0.00 | 65 | 1014.5 |
| 20260903091004 | 65 | 296 | 0.0 | 10.0 | 0.00 | 0.00 | 0.00 | 65 | 1014.5 |
| 20260903090502 | 65 | 294 | 0.0 | 10.0 | 0.00 | 0.00 | 0.00 | 65 | 1014.4 |
| 20260903090003 | 65 | 293 | 0.0 | 4.0 | 0.00 | 0.00 | 0.00 | 65 | 1014.5 |
| 20260903085503 | 66 | 300 | 1.0 | 8.0 | 0.00 | 0.00 | 0.00 | 65 | 1014.5 |
| 20260903085002 | 66 | 304 | 0.0 | 8.0 | 0.00 | 0.00 | 0.00 | 65 | 1014.6 |
| 20260903084504 | 66 | 304 | 0.0 | 2.0 | 0.00 | 0.00 | 0.00 | 65 | 1014.7 |
| 20260903084001 | 66 | 304 | 0.0 | 2.0 | 0.00 | 0.00 | 0.00 | 65 | 1014.6 |
| 20260903083505 | 66 | 302 | 0.0 | 8.0 | 0.00 | 0.00 | 0.00 | 65 | 1014.7 |
| 20260903083253 | 66 | 316 | 2.0 | 8.0 | 0.00 | 0.00 | 0.00 | 65 | 1014.7 |
| 20260903082504 | 67 | 284 | 0.0 | 10.0 | 0.00 | 0.00 | 0.00 | 65 | 1014.7 |
| 20260903082004 | 67 | 284 | 1.0 | 10.0 | 0.00 | 0.00 | 0.00 | 65 | 1014.7 |
| 20260903081505 | 67 | 301 | 0.0 | 1.0 | 0.00 | 0.00 | 0.00 | 65 | 1014.6 |
| 20260903081002 | 67 | 301 | 0.0 | 2.0 | 0.00 | 0.00 | 0.00 | 64 | 1014.6 |
| 20260903080504 | 67 | 268 | 0.0 | 2.0 | 0.00 | 0.00 | 0.00 | 64 | 1014.5 |
| 20260903080002 | 67 | 300 | 0.0 | 10.0 | 0.00 | 0.00 | 0.00 | 63 | 1014.5 |
| 20260903075503 | 67 | 286 | 0.0 | 10.0 | 0.00 | 0.00 | 0.00 | 63 | 1014.6 |
| 20260903075003 | 68 | 298 | 0.0 | 0.0 | 0.00 | 0.00 | 0.00 | 63 | 1014.5 |
| 20260903074503 | 68 | 298 | 0.0 | 0.0 | 0.00 | 0.00 | 0.00 | 62 | 1014.5 |
| 20260903074005 | 68 | 298 | 0.0 | 0.0 | 0.00 | 0.00 | 0.00 | 62 | 1014.5 |
| 20260903073503 | 68 | 298 | 0.0 | 0.0 | 0.00 | 0.00 | 0.00 | 62 | 1014.6 |
| 20260903073004 | 68 | 298 | 0.0 | 0.0 | 0.00 | 0.00 | 0.00 | 62 | 1014.5 |
| 20260903072505 | 68 | 298 | 0.0 | 11.0 | 0.00 | 0.00 | 0.00 | 61 | 1014.6 |
| 20260903072251 | 68 | 298 | 0.0 | 11.0 | 0.00 | 0.00 | 0.00 | 61 | 1014.4 |
| 20260903071501 | 69 | 291 | 0.0 | 5.0 | 0.00 | 0.00 | 0.00 | 61 | 1014.5 |
| 20260903071003 | 69 | 290 | 0.0 | 12.0 | 0.00 | 0.00 | 0.00 | 61 | 1014.5 |
| 20260903070748 | 69 | 294 | 0.0 | 12.0 | 0.00 | 0.00 | 0.00 | 61 | 1014.5 |
| 20260903070002 | 69 | 290 | 1.0 | 11.0 | 0.00 | 0.00 | 0.00 | 60 | 1014.5 |
| 20260903065503 | 69 | 294 | 0.0 | 0.0 | 0.00 | 0.00 | 0.00 | 61 | 1014.5 |
| 20260903065002 | 69 | 294 | 0.0 | 0.0 | 0.00 | 0.00 | 0.00 | 60 | 1014.5 |
| 20260903064501 | 69 | 294 | 0.0 | 0.0 | 0.00 | 0.00 | 0.00 | 60 | 1014.5 |
| 20260903064029 | 70 | 294 | 0.0 | 5.0 | 0.00 | 0.00 | 0.00 | 59 | 1014.5 |
| 20260903064016 | 69 | 294 | 0.0 | 4.0 | 0.00 | 0.00 | 0.00 | 59 | 1014.4 |
| 20260903062953 | 70 | 294 | 1.0 | 5.0 | 0.00 | 0.00 | 0.00 | 58 | 1014.4 |
| 20260903062451 | 70 | 290 | 0.0 | 0.0 | 0.00 | 0.00 | 0.00 | 58 | 1014.4 |
| 20260903062235 | 70 | 290 | 0.0 | 0.0 | 0.00 | 0.00 | 0.00 | 57 | 1014.5 |
| 20260903061446 | 71 | 290 | 0.0 | 0.0 | 0.00 | 0.00 | 0.00 | 56 | 1014.6 |
| 20260903060943 | 71 | 290 | 0.0 | 0.0 | 0.00 | 0.00 | 0.00 | 56 | 1014.6 |
| 20260903060442 | 71 | 290 | 0.0 | 4.0 | 0.00 | 0.00 | 0.00 | 56 | 1014.5 |
| 20260903055933 | 71 | 290 | 0.0 | 4.0 | 0.00 | 0.00 | 0.00 | 55 | 1014.6 |
| 20260903055434 | 71 | 299 | 1.0 | 4.0 | 0.00 | 0.00 | 0.00 | 55 | 1014.6 |
| 20260903055217 | 72 | 315 | 0.0 | 0.0 | 0.00 | 0.00 | 0.00 | 54 | 1014.6 |
| 20260903054432 | 72 | 315 | 0.0 | 0.0 | 0.00 | 0.00 | 0.00 | 54 | 1014.7 |
| 20260903053932 | 72 | 315 | 0.0 | 6.0 | 0.00 | 0.00 | 0.00 | 53 | 1014.7 |
| 20260903053536 | 73 | 315 | 3.0 | 6.0 | 0.00 | 0.00 | 0.00 | 52 | 1014.7 |
| 20260903052934 | 73 | 314 | 2.0 | 6.0 | 0.00 | 0.00 | 0.00 | 51 | 1014.7 |
| 20260903052432 | 73 | 309 | 2.0 | 5.0 | 0.00 | 0.00 | 0.00 | 51 | 1014.7 |
| 20260903051933 | 73 | 309 | 0.0 | 4.0 | 0.00 | 0.00 | 0.00 | 50 | 1014.7 |
| 20260903051432 | 74 | 309 | 0.0 | 4.0 | 0.00 | 0.00 | 0.00 | 49 | 1014.7 |
| 20260903050929 | 74 | 266 | 0.0 | 0.0 | 0.00 | 0.00 | 0.00 | 48 | 1014.7 |
| 20260903050433 | 74 | 266 | 0.0 | 0.0 | 0.00 | 0.00 | 0.00 | 48 | 1014.7 |
| 20260903050212 | 74 | 266 | 0.0 | 1.0 | 0.00 | 0.00 | 0.00 | 47 | 1014.7 |
| 20260903045420 | 74 | 266 | 0.0 | 1.0 | 0.00 | 0.00 | 0.00 | 47 | 1014.7 |
| 20260903045207 | 74 | 310 | 0.0 | 0.0 | 0.00 | 0.00 | 0.00 | 45 | 1014.7 |
| 20260903044656 | 74 | 310 | 0.0 | 0.0 | 0.00 | 0.00 | 0.00 | 45 | 1014.7 |
| 20260903043912 | 74 | 310 | 0.0 | 0.0 | 0.00 | 0.00 | 0.00 | 45 | 1014.6 |
| 20260903043413 | 74 | 310 | 0.0 | 0.0 | 0.00 | 0.00 | 0.00 | 44 | 1014.6 |
| 20260903043139 | 74 | 310 | 0.0 | 0.0 | 0.00 | 0.00 | 0.00 | 44 | 1014.5 |
| 20260903042926 | 74 | 310 | 0.0 | 0.0 | 0.00 | 0.00 | 0.00 | 44 | 1014.5 |
| 20260903042403 | 75 | 310 | 0.0 | 0.0 | 0.00 | 0.00 | 0.00 | 44 | 1014.6 |
| 20260903041902 | 75 | 310 | 0.0 | 0.0 | 0.00 | 0.00 | 0.00 | 44 | 1014.5 |
| 20260903041403 | 75 | 310 | 0.0 | 0.0 | 0.00 | 0.00 | 0.00 | 44 | 1014.5 |
| 20260903040914 | 75 | 310 | 0.0 | 0.0 | 0.00 | 0.00 | 0.00 | 44 | 1014.3 |
| 20260903040905 | 75 | 310 | 0.0 | 0.0 | 0.00 | 0.00 | 0.00 | 44 | 1014.4 |
| 20260903040435 | 75 | 310 | 0.0 | 0.0 | 0.00 | 0.00 | 0.00 | 44 | 1014.3 |
| 20260903035853 | 76 | 310 | 0.0 | 0.0 | 0.00 | 0.00 | 0.00 | 44 | 1014.3 |
| 20260903035640 | 76 | 310 | 0.0 | 0.0 | 0.00 | 0.00 | 0.00 | 44 | 1014.4 |
| 20260903034851 | 76 | 310 | 0.0 | 0.0 | 0.00 | 0.00 | 0.00 | 44 | 1014.2 |
| 20260903034347 | 76 | 310 | 0.0 | 5.0 | 0.00 | 0.00 | 0.00 | 43 | 1014.2 |
| 20260903033850 | 76 | 310 | 0.0 | 5.0 | 0.00 | 0.00 | 0.00 | 43 | 1014.1 |
| 20260903033344 | 76 | 310 | 0.0 | 5.0 | 0.00 | 0.00 | 0.00 | 43 | 1014.2 |
| 20260903033108 | 77 | 326 | 0.0 | 0.0 | 0.00 | 0.00 | 0.00 | 43 | 1014.1 |
| 20260903032952 | 77 | 326 | 0.0 | 0.0 | 0.00 | 0.00 | 0.00 | 43 | 1014.1 |
| 20260903032342 | 77 | 326 | 0.0 | 0.0 | 0.00 | 0.00 | 0.00 | 43 | 1014.1 |
| 20260903031835 | 77 | 326 | 0.0 | 0.0 | 0.00 | 0.00 | 0.00 | 43 | 1014.1 |
| 20260903031621 | 77 | 326 | 0.0 | 0.0 | 0.00 | 0.00 | 0.00 | 42 | 1014.0 |
| 20260903030832 | 78 | 326 | 0.0 | 0.0 | 0.00 | 0.00 | 0.00 | 41 | 1014.0 |
| 20260903030332 | 78 | 326 | 0.0 | 0.0 | 0.00 | 0.00 | 0.00 | 41 | 1013.9 |
| 20260903025834 | 78 | 326 | 0.0 | 0.0 | 0.00 | 0.00 | 0.00 | 40 | 1013.9 |
| 20260903025333 | 78 | 326 | 0.0 | 0.0 | 0.00 | 0.00 | 0.00 | 39 | 1013.9 |
| 20260903024830 | 79 | 326 | 0.0 | 0.0 | 0.00 | 0.00 | 0.00 | 39 | 1013.9 |
| 20260903024323 | 79 | 326 | 0.0 | 0.0 | 0.00 | 0.00 | 0.00 | 38 | 1013.8 |
| 20260903023821 | 79 | 326 | 0.0 | 0.0 | 0.00 | 0.00 | 0.00 | 37 | 1013.8 |
| 20260903023314 | 80 | 326 | 0.0 | 0.0 | 0.00 | 0.00 | 0.00 | 37 | 1013.8 |
| 20260903022814 | 80 | 326 | 0.0 | 0.0 | 0.00 | 0.00 | 0.00 | 37 | 1013.7 |
| 20260903022314 | 80 | 326 | 0.0 | 0.0 | 0.00 | 0.00 | 0.00 | 36 | 1013.8 |
| 20260903021846 | 81 | 326 | 0.0 | 0.0 | 0.00 | 0.00 | 0.00 | 35 | 1013.8 |
| 20260903021829 | 80 | 326 | 0.0 | 0.0 | 0.00 | 0.00 | 0.00 | 35 | 1013.8 |
| 20260903021030 | 81 | 326 | 0.0 | 0.0 | 0.00 | 0.00 | 0.00 | 34 | 1013.9 |
| 20260903020859 | 81 | 326 | 0.0 | 0.0 | 0.00 | 0.00 | 0.00 | 34 | 1013.8 |
| 20260903020841 | 81 | 326 | 0.0 | 0.0 | 0.00 | 0.00 | 0.00 | 34 | 1013.9 |
| 20260903020606 | 81 | 326 | 0.0 | 0.0 | 0.00 | 0.00 | 0.00 | 34 | 1013.8 |
| 20260903020100 | 82 | 326 | 0.0 | 0.0 | 0.00 | 0.00 | 0.00 | 34 | 1013.9 |
| 20260903015552 | 82 | 326 | 0.0 | 0.0 | 0.00 | 0.00 | 0.00 | 34 | 1013.9 |
| 20260903014804 | 82 | 326 | 0.0 | 0.0 | 0.00 | 0.00 | 0.00 | 33 | 1013.9 |
| 20260903014304 | 83 | 326 | 0.0 | 0.0 | 0.00 | 0.00 | 0.00 | 33 | 1013.9 |
| 20260903013805 | 83 | 326 | 0.0 | 0.0 | 0.00 | 0.00 | 0.00 | 32 | 1013.9 |
| 20260903013553 | 83 | 326 | 0.0 | 0.0 | 0.00 | 0.00 | 0.00 | 31 | 1013.9 |
| 20260903012805 | 84 | 326 | 0.0 | 0.0 | 0.00 | 0.00 | 0.00 | 31 | 1013.9 |
| 20260903012538 | 84 | 326 | 0.0 | 3.0 | 0.00 | 0.00 | 0.00 | 31 | 1013.9 |
| 20260903011847 | 84 | 220 | 0.0 | 0.0 | 0.00 | 0.00 | 0.00 | 30 | 1013.9 |
| 20260903011830 | 84 | 326 | 0.0 | 3.0 | 0.00 | 0.00 | 0.00 | 30 | 1014.0 |
| 20260903010802 | 84 | 220 | 0.0 | 0.0 | 0.00 | 0.00 | 0.00 | 29 | 1014.0 |
| 20260903010557 | 84 | 220 | 0.0 | 1.0 | 0.00 | 0.00 | 0.00 | 29 | 1014.0 |
| 20260903005805 | 84 | 220 | 0.0 | 4.0 | 0.00 | 0.00 | 0.00 | 29 | 1014.1 |
| 20260903005306 | 84 | 281 | 0.0 | 4.0 | 0.00 | 0.00 | 0.00 | 29 | 1014.1 |
| 20260903004803 | 84 | 228 | 0.0 | 3.0 | 0.00 | 0.00 | 0.00 | 29 | 1014.1 |
| 20260903004302 | 84 | 283 | 0.0 | 6.0 | 0.00 | 0.00 | 0.00 | 30 | 1014.1 |
| 20260903003803 | 85 | 283 | 0.0 | 6.0 | 0.00 | 0.00 | 0.00 | 29 | 1014.1 |
| 20260903003558 | 85 | 250 | 0.0 | 0.0 | 0.00 | 0.00 | 0.00 | 30 | 1014.2 |
| 20260903002803 | 85 | 250 | 0.0 | 0.0 | 0.00 | 0.00 | 0.00 | 30 | 1014.2 |
| 20260903002306 | 85 | 250 | 0.0 | 0.0 | 0.00 | 0.00 | 0.00 | 30 | 1014.2 |
| 20260903001803 | 85 | 250 | 0.0 | 8.0 | 0.00 | 0.00 | 0.00 | 31 | 1014.3 |
| 20260903001302 | 85 | 250 | 0.0 | 8.0 | 0.00 | 0.00 | 0.00 | 29 | 1014.3 |
| 20260903000755 | 85 | 268 | 0.0 | 1.0 | 0.00 | 0.00 | 0.00 | 30 | 1014.3 |
| 20260903000252 | 85 | 268 | 0.0 | 1.0 | 0.00 | 0.00 | 0.00 | 31 | 1014.3 |
| 20260902235749 | 85 | 229 | 0.0 | 0.0 | 0.00 | 0.00 | 0.00 | 31 | 1014.4 |
| 20260902235241 | 85 | 229 | 0.0 | 0.0 | 0.00 | 0.00 | 0.00 | 29 | 1014.5 |
| 20260902235033 | 85 | 229 | 0.0 | 0.0 | 0.00 | 0.00 | 0.00 | 30 | 1014.4 |
| 20260902234235 | 86 | 229 | 0.0 | 0.0 | 0.00 | 0.00 | 0.00 | 30 | 1014.5 |
| 20260902233736 | 86 | 229 | 0.0 | 0.0 | 0.00 | 0.00 | 0.00 | 31 | 1014.5 |
| 20260902233235 | 86 | 229 | 0.0 | 0.0 | 0.00 | 0.00 | 0.00 | 30 | 1014.6 |
| 20260902232732 | 86 | 229 | 0.0 | 0.0 | 0.00 | 0.00 | 0.00 | 31 | 1014.6 |
| 20260902232233 | 86 | 229 | 0.0 | 0.0 | 0.00 | 0.00 | 0.00 | 31 | 1014.7 |
| 20260902231733 | 87 | 229 | 0.0 | 1.0 | 0.00 | 0.00 | 0.00 | 30 | 1014.7 |
| 20260902231234 | 87 | 229 | 0.0 | 10.0 | 0.00 | 0.00 | 0.00 | 31 | 1014.8 |
| 20260902230952 | 86 | 238 | 1.0 | 10.0 | 0.00 | 0.00 | 0.00 | 31 | 1014.9 |
| 20260902230449 | 86 | 269 | 0.0 | 0.0 | 0.00 | 0.00 | 0.00 | 30 | 1014.8 |
| 20260902230244 | 86 | 269 | 0.0 | 0.0 | 0.00 | 0.00 | 0.00 | 30 | 1014.8 |
| 20260902225733 | 87 | 269 | 0.0 | 0.0 | 0.00 | 0.00 | 0.00 | 30 | 1014.9 |
| 20260902225233 | 87 | 269 | 0.0 | 1.0 | 0.00 | 0.00 | 0.00 | 30 | 1015.0 |
| 20260902225020 | 87 | 269 | 0.0 | 1.0 | 0.00 | 0.00 | 0.00 | 31 | 1015.0 |
| 20260902224525 | 87 | 290 | 0.0 | 0.0 | 0.00 | 0.00 | 0.00 | 32 | 1015.1 |
| 20260902223730 | 87 | 290 | 0.0 | 0.0 | 0.00 | 0.00 | 0.00 | 32 | 1015.1 |
| 20260902223231 | 87 | 222 | 0.0 | 5.0 | 0.00 | 0.00 | 0.00 | 30 | 1015.2 |
| 20260902222730 | 87 | 222 | 0.0 | 8.0 | 0.00 | 0.00 | 0.00 | 31 | 1015.3 |
| 20260902222227 | 87 | 238 | 1.0 | 8.0 | 0.00 | 0.00 | 0.00 | 31 | 1015.2 |
| 20260902221953 | 87 | 263 | 0.0 | 0.0 | 0.00 | 0.00 | 0.00 | 32 | 1015.3 |
| 20260902221744 | 87 | 263 | 0.0 | 0.0 | 0.00 | 0.00 | 0.00 | 32 | 1015.3 |
| 20260902221225 | 87 | 263 | 0.0 | 0.0 | 0.00 | 0.00 | 0.00 | 33 | 1015.4 |
| 20260902221012 | 87 | 263 | 0.0 | 0.0 | 0.00 | 0.00 | 0.00 | 32 | 1015.4 |
| 20260902220222 | 87 | 263 | 0.0 | 0.0 | 0.00 | 0.00 | 0.00 | 32 | 1015.5 |
| 20260902215722 | 87 | 263 | 0.0 | 4.0 | 0.00 | 0.00 | 0.00 | 33 | 1015.7 |
| 20260902215219 | 87 | 263 | 0.0 | 4.0 | 0.00 | 0.00 | 0.00 | 32 | 1015.8 |
| 20260902214716 | 87 | 236 | 0.0 | 2.0 | 0.00 | 0.00 | 0.00 | 33 | 1015.8 |
| 20260902214215 | 87 | 244 | 0.0 | 0.0 | 0.00 | 0.00 | 0.00 | 33 | 1015.9 |
| 20260902214005 | 87 | 244 | 0.0 | 1.0 | 0.00 | 0.00 | 0.00 | 32 | 1016.0 |
| 20260902213457 | 87 | 244 | 0.0 | 12.0 | 0.00 | 0.00 | 0.00 | 32 | 1016.0 |
| 20260902212712 | 86 | 233 | 1.0 | 12.0 | 0.00 | 0.00 | 0.00 | 33 | 1016.1 |
| 20260902212502 | 86 | 277 | 0.0 | 0.0 | 0.00 | 0.00 | 0.00 | 34 | 1016.2 |
| 20260902211710 | 86 | 277 | 0.0 | 0.0 | 0.00 | 0.00 | 0.00 | 36 | 1016.3 |
| 20260902211210 | 85 | 277 | 0.0 | 0.0 | 0.00 | 0.00 | 0.00 | 36 | 1016.2 |
| 20260902210959 | 85 | 277 | 0.0 | 0.0 | 0.00 | 0.00 | 0.00 | 34 | 1016.3 |
| 20260902210207 | 85 | 277 | 0.0 | 0.0 | 0.00 | 0.00 | 0.00 | 35 | 1016.3 |
| 20260902205703 | 85 | 277 | 0.0 | 0.0 | 0.00 | 0.00 | 0.00 | 34 | 1016.5 |
| 20260902205450 | 85 | 277 | 0.0 | 0.0 | 0.00 | 0.00 | 0.00 | 34 | 1016.4 |
| 20260902204703 | 85 | 277 | 0.0 | 0.0 | 0.00 | 0.00 | 0.00 | 35 | 1016.5 |
| 20260902204204 | 85 | 277 | 0.0 | 0.0 | 0.00 | 0.00 | 0.00 | 37 | 1016.5 |
| 20260902203702 | 84 | 277 | 0.0 | 0.0 | 0.00 | 0.00 | 0.00 | 36 | 1016.6 |
| 20260902203202 | 84 | 277 | 0.0 | 0.0 | 0.00 | 0.00 | 0.00 | 37 | 1016.6 |
| 20260902202703 | 84 | 277 | 0.0 | 0.0 | 0.00 | 0.00 | 0.00 | 38 | 1016.6 |
| 20260902202452 | 83 | 277 | 0.0 | 0.0 | 0.00 | 0.00 | 0.00 | 37 | 1016.7 |
| 20260902201703 | 83 | 277 | 0.0 | 0.0 | 0.00 | 0.00 | 0.00 | 36 | 1016.7 |
| 20260902201203 | 83 | 277 | 0.0 | 1.0 | 0.00 | 0.00 | 0.00 | 37 | 1016.8 |
| 20260902200704 | 83 | 277 | 0.0 | 1.0 | 0.00 | 0.00 | 0.00 | 39 | 1016.8 |
| 20260902200205 | 83 | 277 | 0.0 | 1.0 | 0.00 | 0.00 | 0.00 | 38 | 1016.9 |
| 20260902195704 | 83 | 277 | 0.0 | 3.0 | 0.00 | 0.00 | 0.00 | 37 | 1017.0 |
| 20260902195203 | 83 | 277 | 0.0 | 3.0 | 0.00 | 0.00 | 0.00 | 37 | 1017.1 |
| 20260902194949 | 82 | 174 | 0.0 | 0.0 | 0.00 | 0.00 | 0.00 | 39 | 1017.1 |
| 20260902194451 | 82 | 174 | 0.0 | 0.0 | 0.00 | 0.00 | 0.00 | 39 | 1017.3 |
| 20260902193702 | 82 | 174 | 0.0 | 0.0 | 0.00 | 0.00 | 0.00 | 41 | 1017.3 |
| 20260902193202 | 81 | 174 | 0.0 | 0.0 | 0.00 | 0.00 | 0.00 | 42 | 1017.3 |
| 20260902192706 | 81 | 174 | 0.0 | 0.0 | 0.00 | 0.00 | 0.00 | 41 | 1017.3 |
| 20260902192204 | 81 | 174 | 0.0 | 0.0 | 0.00 | 0.00 | 0.00 | 41 | 1017.4 |
| 20260902191703 | 81 | 174 | 0.0 | 0.0 | 0.00 | 0.00 | 0.00 | 41 | 1017.4 |
| 20260902191205 | 81 | 174 | 0.0 | 0.0 | 0.00 | 0.00 | 0.00 | 40 | 1017.4 |